Location: Boćki
(52.6512°N, 23.0459°E)
Time: 04:53:43
(UTC+01:00)

ISS - Visible Passes

Search period start: 24 November 2017 00:00
Search period end: 04 December 2017 00:00
Orbit: 402 x 407 km, 51.6° (Epoch: 24 November)

Date Brightness Start Highest point End Pass type
(mag) Time Alt. Az. Time Alt. Az. Time Alt. Az.
28 Nov -0.7 18:17:46 10° SSW 18:17:50 10° SSW 18:17:50 10° SSW visible
29 Nov -1.7 17:26:04 10° S 17:27:45 17° SSE 17:27:45 17° SSE visible
30 Nov -1.4 16:34:59 10° SSE 16:36:15 12° SE 16:37:32 10° ESE visible
30 Nov -1.5 18:08:59 10° SW 18:10:15 20° SW 18:10:15 20° SW visible
01 Dec -2.6 17:16:55 10° SW 17:19:49 29° SSE 17:20:01 29° SE visible
02 Dec -2.0 16:25:04 10° SSW 16:27:35 20° SSE 16:29:44 12° E visible
02 Dec -2.2 18:00:24 10° WSW 18:02:23 32° SW 18:02:23 32° SW visible
03 Dec -3.2 17:08:08 10° SW 17:11:17 45° SSE 17:12:04 37° ESE visible
03 Dec -0.4 18:44:20 10° W 18:44:42 13° W 18:44:42 13° W visible
